West Lebanon, NH

10:03 AM EST on February 26, 2017 (GMT -0500)
Lebanon Municipal

Weather History for KLEB - April, 2013

Change the Weather History Date:

Sunday, April 21, 2013

  Actual Average Record
Temperature  
Mean Temperature 39 °F -  
Max Temperature 51 °F 59 °F 86 °F (1987)
Min Temperature 27 °F 35 °F 21 °F (1928)
Degree Days  
Heating Degree Days 26    
Moisture  
Dew Point 15 °F    
Average Humidity 41    
Maximum Humidity 75    
Minimum Humidity 22    
Precipitation  
Precipitation 0.00 in - - ()
Sea Level Pressure  
Sea Level Pressure 30.52 in    
Wind  
Wind Speed 8 mph (NW)    
Max Wind Speed 14 mph    
Max Gust Speed 23 mph    
Visibility 10 miles    
Events      
Averages and records for this station are not official NWS values.
T = Trace of Precipitation, MM = Missing Value Source: NWS Daily Summary

Daily Weather History Graph

Daily Weather History Graph

Search for Another Location

Airport or City:

Trip Planner

Search our weather history database for the weather conditions in past years. The results will help you decide how hot, cold, wet, or windy it might be!

Date:

Astronomy

Apr. 21, 2013 Rise Set
Actual Time 5:56 AM EDT 7:40 PM EDT
Civil Twilight 5:25 AM EDT 8:10 PM EDT
Nautical Twilight 4:49 AM EDT 8:47 PM EDT
Astronomical Twilight 4:09 AM EDT 9:27 PM EDT
Moon 3:14 PM EDT (4/21) 3:25 AM EDT (4/21)
Length of Visible Light 14h 44m
Length of Day
13h 43m
Waxing Gibbous, 79% of the Moon is Illuminated
Apr 21
Waxing Gibbous
Apr 25
Full
May 2
Last Quarter
May 9
New
May 18
First Quarter

Hourly Weather History & Observations

Time (EDT) Temp. Windchill Dew Point Humidity Pressure Visibility Wind Dir Wind Speed Gust Speed Precip Events Conditions
12:53 AM 37.0 °F 31.0 °F 15.1 °F 41% 30.27 in 10.0 mi West 8.1 mph 17.3 mph N/A   Partly Cloudy
1:53 AM 36.0 °F 31.1 °F 16.0 °F 44% 30.29 in 10.0 mi WNW 5.8 mph - N/A   Mostly Cloudy
2:53 AM 35.1 °F 28.6 °F 17.1 °F 48% 30.31 in 10.0 mi NW 8.1 mph 20.7 mph N/A   Overcast
3:53 AM 35.1 °F 30.1 °F 16.0 °F 46% 30.34 in 10.0 mi WNW 5.8 mph - N/A   Overcast
4:53 AM 35.1 °F 29.3 °F 16.0 °F 46% 30.38 in 10.0 mi NNW 6.9 mph - N/A   Overcast
5:53 AM 34.0 °F 26.6 °F 17.1 °F 50% 30.41 in 10.0 mi NNW 9.2 mph - N/A   Overcast
6:53 AM 32.0 °F 24.2 °F 16.0 °F 52% 30.48 in 10.0 mi NW 9.2 mph 18.4 mph N/A   Partly Cloudy
7:53 AM 34.0 °F 24.6 °F 14.0 °F 44% 30.51 in 10.0 mi NNW 13.8 mph 23.0 mph N/A   Clear
8:53 AM 35.1 °F 27.4 °F 15.1 °F 44% 30.54 in 10.0 mi WNW 10.4 mph 17.3 mph N/A   Scattered Clouds
9:53 AM 39.0 °F 32.8 °F 15.1 °F 38% 30.56 in 10.0 mi NNW 9.2 mph - N/A   Clear
10:53 AM 41.0 °F 33.9 °F 14.0 °F 33% 30.57 in 10.0 mi WNW 12.7 mph 18.4 mph N/A   Clear
11:53 AM 43.0 °F 37.7 °F 12.0 °F 28% 30.57 in 10.0 mi NW 9.2 mph - N/A   Clear
12:53 PM 45.0 °F 41.2 °F 12.9 °F 27% 30.56 in 10.0 mi Variable 6.9 mph - N/A   Clear
1:53 PM 48.0 °F - 12.0 °F 24% 30.56 in 10.0 mi NNW 10.4 mph 18.4 mph N/A   Clear
2:53 PM 48.9 °F - 12.0 °F 23% 30.56 in 10.0 mi NNW 9.2 mph 16.1 mph N/A   Clear
3:53 PM 50.0 °F - 12.0 °F 22% 30.56 in 10.0 mi NNW 10.4 mph 17.3 mph N/A   Clear
4:53 PM 50.0 °F - 12.0 °F 22% 30.57 in 10.0 mi North 10.4 mph - N/A   Clear
5:53 PM 50.0 °F - 12.9 °F 23% 30.58 in 10.0 mi North 6.9 mph - N/A   Clear
6:53 PM 48.0 °F - 12.9 °F 24% 30.60 in 10.0 mi NNW 6.9 mph - N/A   Clear
7:53 PM 43.0 °F - 15.1 °F 32% 30.63 in 10.0 mi Calm Calm - N/A   Clear
8:53 PM 34.0 °F 29.8 °F 21.0 °F 59% 30.66 in 10.0 mi South 4.6 mph - N/A   Clear
9:53 PM 30.9 °F - 19.9 °F 64% 30.68 in 10.0 mi Calm Calm - N/A   Clear
10:53 PM 28.0 °F - 19.9 °F 72% 30.69 in 10.0 mi Calm Calm - N/A   Clear
11:53 PM 27.0 °F - 19.9 °F 75% 30.70 in 10.0 mi Calm Calm - N/A   Clear